Regional Weather Roundup
Issued by NWS Bismarck, ND

Home | Current Version | Previous Version | Text Only | Print | Product List | Glossary On
Versions: 1 2 3 4 5 6 7 8 9 10 11 12 13 14 15 16 17 18 19 20 21 22 23 24 25 26 27 28 29 30 31 32 33 34 35 36 37 38 39 40 41 42 43 44 45 46 47 48 49 50
004
ASUS43 KBIS 210810
RWRBIS

NWR BROADCAST TEXT
NATIONAL WEATHER SERVICE BISMARCK ND
300 AM CDT SAT APR 21 2018

NOTE: "FAIR" INDICATES FEW OR NO CLOUDS BELOW 12,000 FEET WITH NO
SIGNIFICANT WEATHER AND/OR OBSTRUCTIONS TO VISIBILITY.


CITY           SKY/WX    TMP DP  RH WIND       PRES   REMARKS
WILLISTON      CLEAR     44  38  79 SE6       30.16S
MINOT          CLEAR     46  36  68 S17G25    30.19S
MINOT AFB      CLEAR     43  36  76 SW16      30.18R
BISMARCK       MOCLDY    40  36  86 S8        30.27F
DICKINSON      CLEAR     37  35  92 S13       30.18S
GARRISON         N/A     38  34  85 CALM      30.22F
HETTINGER ARPT CLOUDY    40  36  86 S14       30.23S
JAMESTOWN      CLEAR     36  33  89 S8        30.30S
CARRINGTON     FAIR      36  34  93 S8        30.31R
HAZEN          FAIR      39  37  93 S7        30.25S
LINTON           N/A    N/A N/A N/A SE6       30.31S
MANDAN         FAIR      36  37 100 S8        30.27F
OAKES            N/A     34  34 100 S9        30.34S
RUGBY          FAIR      36  34  93 SE9       30.24S
STANLEY          N/A     39  39 100 S10       30.20F
TIOGA          FAIR      39  39 100 S15       30.17F
WATFORD CITY   FAIR      41  37  87 S12       30.16F
$$

CITY           SKY/WX    TMP DP  RH WIND       PRES   REMARKS
GRAND FORKS    FAIR      34  34 100 S8        30.34S
GRAND FORKS AF FAIR      35  33  95 S9        30.33S
DEVILS LAKE    CLOUDY    33  31  92 SE5       30.29S
FARGO          FAIR      37  33  85 S10       30.36S
CANDO          PTSUNNY   32  32 100 SE8       30.28F
CAVALIER         N/A     34  30  86 S6        30.31S
GRAFTON        FAIR      32  32 100 S7        30.34S
GWINNER          N/A     34  34 100 CALM      30.34F
LANGDON        FAIR      36  36 100 S12       30.28S
ROLLA          FAIR      34  34 100 CALM      30.25S
WALHALLA       FAIR      36  34  93 SE5       30.29F
$$

CITY           SKY/WX    TMP DP  RH WIND       PRES   REMARKS
ABERDEEN       CLOUDY    40  37  89 S6        30.34F
MOBRIDGE       CLOUDY    42  38  85 SE7       30.27S
BUFFALO          N/A     42  37  82 S17G26    30.13R
RAPID CITY     CLOUDY    38  37  97 SE15      30.24S
GLASGOW        CLEAR     44  36  73 E13       30.07R
SIDNEY         CLEAR     39  35  86 S7        30.15F
WOLF POINT     CLEAR     44  38  79 E5        30.10S
GLENDIVE       CLEAR     39  36  89 S7        30.13S
MILES CITY     CLEAR     44  39  82 SE10      30.09S
BAKER          CLEAR     37  36  96 SE12      30.16R
$$

CITY           SKY/WX    TMP DP  RH WIND       PRES   REMARKS
BILLINGS       CLEAR     49  36  61 SW8       30.09S
GREAT FALLS    CLEAR     38  24  57 SW7       30.06F
REGINA         CLEAR     37  34  87 SE14      30.08F
ESTEVAN        PTCLDY    43  36  75 S12       30.14S
$$





USA.gov is the U.S. government's official web portal to all federal, state and local government web resources and services.